Temp
1 1 1 1 2 1 1 1 1 1 1 0 0 -0 -0 0 0 1 1 1 1 2 2 2 2 3 3
-1 0 0 0 -0 -1 0 -0 0 0 0 0 -0 -0 -0 -0 -0 0 0 1 1 1 1 2 2 2 3
-0 -0 -0 0 0 0 0 -0 -0 0 0 0 0 -0 -0 -0 -0 -0 -0 -0 -0 -0 -0 0 1 1 1
0 0 0 0 1 1 1 1 -0 -0 -0 -0 -0 -0 -0 0 0 -0 -0 -0 -1 -1 -1 -0 -0 -0 0
-0 0 1 1 1 1 -0 -0 -1 -1 -1 -1 -0 -1 -1 -0 -0 -0 -0 -0 -1 -1 -1 -0 -0 -0 -0
-0 -0 0 1 0 -1 -2 -2 -2 -2 -2 -2 -1 -1 -1 -1 -1 -0 -0 -0 -1 -1 -1 -1 -1 -1 -0
-1 -1 -1 -1 -2 -2 -3 -3 -3 -2 -2 -2 -2 -1 -1 -1 -1 -1 -1 -1 -1 -1 -1 -1 -1 -1 -0
-2 -2 -2 -2 -2 -2 -2 -3 -3 -2 -2 -2 -2 -2 -2 -1 -1 -1 -2 -1 -1 -2 -2 -2 -1 -1 -1
-3 -3 -3 -3 -3 -3 -4 -3 -3 -3 -4 -3 -2 -2 -3 -3 -2 -2 -2 -1 -2 -2 -2 -2 -2 -2 -2
-2 -3 -2 -3 -3 -3 -4 -4 -4 -4 -2 -4 -4 -4 -4 -3 -3 -3 -4 -3 -3 -2 -2 -2 -2 -2 -3
-3 -3 -3 -3 -3 -3 -4 -4 -5 -5 -5 -5 -5 -5 -6 -5 -5 -5 -5 -4 -4 -4 -3 -3 -3 -3 -3
-3 -3 -3 -4 -5 -5 -6 -6 -6 -6 -5 -6 -6 -7 -7 -6 -6 -5 -5 -5 -5 -5 -4 -4 -4 -3 -3
-4 -4 -5 -5 -6 -6 -5 -5 -6 -6 -6 -6 -6 -6 -7 -7 -6 -6 -6 -5 -5 -4 -4 -4 -4 -4 -4
-5 -5 -6 -6 -6 -6 -6 -6 -6 -6 -5 -5 -5 -5 -5 -6 -6 -5 -5 -5 -5 -5 -5 -4 -4 -4 -4
-6 -6 -7 -6 -6 -6 -6 -6 -6 -5 -5 -5 -5 -5 -4 -5 -5 -5 -5 -4 -4 -4 -4 -4 -3 -3 -3
-7 -7 -7 -7 -7 -7 -6 -5 -5 -5 -5 -4 -4 -4 -4 -3 -3 -4 -4 -4 -3 -3 -3 -3 -3 -2 -2
-7 -7 -7 -7 -7 -6 -6 -6 -5 -5 -5 -4 -4 -4 -4 -3 -2 -2 -3 -3 -3 -3 -3 -3 -3 -2 -2
Height
807 808 809 810 808 810 811 810 809 808 805 805 804 803 800 799 797 795 794 791 789 787 785 784 782 781 780
807 807 807 806 805 807 806 805 805 802 801 799 797 796 794 793 791 790 788 785 782 780 779 777 776 775 774
806 805 805 804 804 805 805 802 800 799 797 795 793 791 789 787 786 783 780 777 775 773 772 770 768 768 767
804 804 803 801 801 801 800 799 798 796 794 791 788 786 784 782 779 776 773 771 768 766 764 763 762 761 760
803 800 799 800 799 799 799 798 796 793 790 787 784 781 778 774 772 770 767 765 762 759 757 756 754 753 752
800 799 798 797 798 799 799 798 794 790 787 782 779 775 771 768 766 763 760 757 754 752 750 749 746 745 744
799 798 797 797 798 797 796 794 791 787 785 778 774 770 766 762 759 756 753 750 747 744 742 741 739 737 736
797 796 795 795 795 794 792 789 787 783 781 775 769 766 760 755 752 748 745 742 740 737 735 733 731 729 727
794 794 793 792 791 790 789 788 783 779 776 773 765 762 756 747 743 742 740 738 734 731 728 726 724 721 718
792 791 789 788 788 788 787 785 783 778 772 771 763 761 752 741 738 737 733 730 728 725 721 719 716 714 710
789 788 787 786 785 784 783 782 780 776 769 770 761 759 758 745 732 731 728 722 720 717 714 711 708 707 704
787 786 785 783 782 780 778 776 774 770 763 765 760 757 753 745 735 725 723 719 715 711 708 705 702 700 698
786 784 783 780 777 775 773 771 767 763 759 756 754 750 747 742 733 725 720 711 709 705 702 699 696 692 687
784 782 780 777 775 773 770 766 761 755 754 751 747 744 739 735 729 719 716 712 703 700 696 691 686 683 679
782 780 777 775 772 770 767 763 758 751 746 744 741 738 733 728 719 714 708 703 698 692 689 681 678 675 670
779 777 775 773 769 767 764 760 754 749 743 738 734 728 723 718 715 705 701 695 690 687 683 676 667 664 661
777 774 772 769 767 763 759 755 749 745 739 734 729 725 716 708 704 704 697 688 683 678 675 669 662 653 653
Wind_Speed
8 9 13 14 13 11 13 17 19 19 19 21 23 24 23 25 25 25 24 24 24 24 25 25 25 25 26
5 6 9 6 11 18 17 14 18 19 20 21 23 23 24 24 24 25 25 24 25 26 26 26 27 27 28
4 6 10 11 11 14 15 18 17 18 20 20 21 22 23 23 24 25 25 25 25 25 25 26 27 28 29
7 8 9 12 11 14 15 14 19 19 20 22 21 19 21 23 25 25 25 24 23 23 23 25 26 27 28
8 8 8 11 11 12 15 16 19 21 19 19 17 24 25 24 24 24 22 23 24 25 26 27 28 29 30
7 9 12 12 12 13 12 14 10 13 14 25 22 26 26 27 25 25 26 26 27 27 26 25 26 26 27
11 12 13 12 13 16 14 15 19 23 22 24 25 25 27 28 26 27 29 29 28 26 25 25 24 25 26
10 13 13 13 13 15 17 19 21 23 18 18 26 24 28 28 29 30 28 25 25 25 24 25 26 27 29
12 13 14 14 15 16 16 15 15 19 21 17 16 21 29 35 26 20 22 24 28 28 27 26 27 29 30
10 11 10 11 11 13 14 14 12 11 3 7 19 17 8 22 15 24 31 25 25 26 28 26 26 26 26
10 10 10 9 10 10 11 14 16 19 24 17 15 22 15 17 23 24 28 29 26 25 27 25 23 21 24
10 10 10 11 12 12 15 17 19 26 30 24 18 18 20 25 22 23 26 29 28 26 25 24 23 22 23
10 12 12 14 16 15 15 17 20 22 25 24 25 26 24 24 27 30 26 31 31 21 23 25 26 27 28
11 14 15 15 15 15 18 20 22 25 21 21 22 23 27 27 28 33 29 19 30 31 29 30 30 29 30
12 15 14 14 15 15 18 22 21 25 26 22 21 21 26 31 32 30 30 30 31 32 30 31 28 28 30
13 13 14 15 15 17 19 20 22 24 24 26 26 25 22 22 24 32 28 28 29 29 28 27 31 28 27
14 15 16 18 18 19 20 20 22 22 24 25 24 20 11 12 23 19 26 31 31 28 26 26 29 35 29
Wind_Direction
221 255 274 279 290 308 292 279 285 286 290 288 289 290 293 290 290 288 284 283 284 284 284 285 284 285 285
281 280 282 294 269 272 288 286 287 291 291 291 293 293 291 289 288 284 284 283 283 283 283 283 282 282 281
273 275 285 292 298 291 290 291 293 297 297 296 294 294 289 289 286 284 283 283 283 283 282 282 281 280 279
265 284 288 293 280 286 295 302 304 300 298 293 294 291 292 290 288 289 288 286 287 287 287 285 282 280 280
270 276 309 304 298 309 306 304 305 300 295 296 296 301 296 295 294 293 291 292 291 289 287 285 283 281 280
302 292 282 304 312 303 310 310 314 301 305 301 300 297 298 294 295 296 295 295 293 291 288 285 284 283 281
288 293 300 298 298 293 280 280 283 288 297 293 295 293 294 292 294 296 296 296 294 291 287 283 282 281 281
279 283 284 285 282 290 294 293 289 289 293 291 292 292 295 294 295 296 297 296 295 293 292 289 287 284 281
284 282 281 280 280 284 281 287 294 295 296 284 289 301 296 294 300 293 294 295 294 294 292 291 288 285 283
291 290 286 283 279 270 275 277 289 303 286 320 297 311 303 296 294 292 302 299 296 293 294 293 290 287 282
302 302 297 290 285 276 268 273 275 267 276 294 294 299 288 292 299 296 298 305 302 298 296 294 292 286 282
304 301 304 302 298 289 284 281 278 271 291 284 277 281 280 287 288 300 304 303 299 298 298 295 293 288 283
309 307 307 303 303 304 301 296 292 288 287 295 277 276 271 273 284 296 302 305 300 299 309 298 291 290 286
305 304 307 308 305 307 308 310 305 302 303 299 293 289 271 269 274 284 289 283 293 295 292 289 286 281 276
303 302 303 304 301 305 308 312 300 309 312 310 305 295 284 278 276 276 283 287 287 288 288 285 286 286 282
302 300 302 300 299 303 305 300 304 309 307 312 312 303 294 283 278 277 280 280 287 291 291 289 290 288 281
300 302 302 299 299 297 298 302 307 308 302 306 308 305 298 297 302 290 283 289 291 290 288 282 280 286 286